User: anonymous
Location: Caltech
(34.1382°N, 118.1253°W)
Time: 12:19:29
(UTC-07:00)
Language:

JAS-1B - Orbit

View from above orbital plane
View from above orbital plane
View from above satellite
View from above satellite

Ground track
Ground track

The orbit data is extracted from the following two-line orbital elements,

1 20480U 90013C   14113.87681844 -.00000024  00000-0  88530-5 0  7111
2 20480 099.0389 087.2324 0541064 116.8258 355.2059 12.83393116134162
Epoch (UTC): 23 April 2014 21:02:37
Eccentricity: 0.0541064
inclination: 99.0389°
perigee height: 911 km
apogee height: 1745 km
right ascension of ascending node: 87.2324°
argument of perigee: 116.8258°
revolutions per day: 12.83393116
mean anomaly at epoch: 355.2059°
orbit number at epoch: 13416

The dashed part of the orbit path shows where the satellite is in the earth's shadow,  

DLR